GW5725 Weather Reports


time (UTC)temp
F
wind
direction
speed
knots
gust
knots
rain 1hr
in
rain 24hr
in
rain mn
in
humidity
%
barometer
mb
20260506195507 78 352 2.6 9.6 0.00 0.00 0.00 60 1013.5
20260506195008 78 201 2.6 9.6 0.00 0.00 0.00 62 1013.5
20260506194513 78 325 2.6 10.4 0.00 0.00 0.00 62 1013.5
20260506194009 78 207 2.6 10.4 0.00 0.00 0.00 62 1013.6
20260506193507 78 313 2.6 7.8 0.00 0.00 0.00 62 1013.7
20260506193020 78 336 2.6 7.8 0.00 0.00 0.00 63 1013.7
20260506192506 78 35 0.9 7.8 0.00 0.00 0.00 64 1013.8
20260506192008 77 76 0.9 7.8 0.00 0.00 0.00 65 1013.8
20260506191523 77 136 2.6 8.7 0.00 0.00 0.00 63 1014.0
20260506191010 77 325 3.5 8.7 0.00 0.00 0.00 64 1014.2
20260506190508 77 300 1.7 7.0 0.00 0.00 0.00 65 1014.4
20260506190007 77 342 2.6 7.8 0.00 0.00 0.00 64 1014.1
20260506185503 76 252 0.9 7.8 0.00 0.00 0.00 65 1014.2
20260506185005 76 277 0.9 5.2 0.00 0.00 0.00 66 1014.3
20260506184509 76 246 1.7 11.3 0.00 0.00 0.00 65 1014.3
20260506184007 76 9 2.6 11.3 0.00 0.00 0.00 65 1014.3
20260506183507 76 178 0.9 5.2 0.00 0.00 0.00 65 1014.3
20260506183014 75 269 0.9 6.1 0.00 0.00 0.00 67 1014.1
20260506182506 75 227 1.7 7.0 0.00 0.00 0.00 67 1014.1
20260506182011 74 194 1.7 7.0 0.00 0.00 0.00 68 1014.0
20260506181520 74 234 0.9 4.3 0.00 0.00 0.00 68 1013.9
20260506181010 75 240 0.9 4.3 0.00 0.00 0.00 67 1014.0
20260506180509 75 252 0.9 2.6 0.00 0.00 0.00 66 1014.2
20260506180028 74 194 0.9 3.5 0.00 0.00 0.00 69 1014.2
20260506175509 74 294 0.9 5.2 0.00 0.00 0.00 68 1014.2
20260506175002 74 238 0.9 5.2 0.00 0.00 0.00 69 1014.0
20260506174505 73 142 0.9 5.2 0.00 0.00 0.00 71 1014.3
20260506174009 73 190 1.7 5.2 0.00 0.00 0.00 70 1014.3
20260506173507 72 223 1.7 3.5 0.00 0.00 0.00 70 1014.6
20260506173013 72 253 0.9 2.6 0.00 0.00 0.00 73 1014.6
20260506172509 71 249 0.9 2.6 0.00 0.00 0.00 74 1014.7
20260506172008 70 294 0.9 2.6 0.00 0.00 0.00 75 1014.9
20260506171518 70 336 0.9 7.8 0.00 0.00 0.00 74 1014.6
20260506171008 70 227 2.6 7.8 0.00 0.00 0.00 74 1015.5
20260506170509 70 211 1.7 4.3 0.00 0.00 0.00 75 1015.7
20260506170025 70 227 0.9 3.5 0.00 0.00 0.00 73 1015.5
20260506165508 70 286 1.7 3.5 0.00 0.00 0.00 72 1015.6
20260506165009 70 261 0.0 3.5 0.00 0.00 0.00 71 1016.0
20260506164533 71 246 0.9 6.1 0.00 0.00 0.00 70 1016.1
20260506164009 71 248 0.9 6.1 0.00 0.00 0.00 70 1015.7
20260506163507 71 240 0.9 2.6 0.00 0.00 0.00 71 1015.8
20260506163012 70 9 0.9 2.6 0.00 0.00 0.00 73 1015.8
20260506162509 70 306 0.9 3.5 0.00 0.00 0.00 73 1016.0
20260506162011 70 248 0.0 3.5 0.00 0.00 0.00 74 1015.8
20260506161516 70 257 0.0 2.6 0.00 0.00 0.00 73 1015.6
20260506161009 70 232 0.0 4.3 0.00 0.00 0.00 72 1015.4
20260506160510 70 360 1.7 4.3 0.00 0.00 0.00 71 1015.5
20260506160022 70 329 0.9 3.5 0.00 0.00 0.00 70 1015.6
20260506155509 70 275 0.9 3.5 0.00 0.00 0.00 71 1015.6
20260506155014 70 232 0.9 3.5 0.00 0.00 0.00 70 1015.6
20260506154526 70 224 0.9 2.6 0.00 0.00 0.00 71 1015.6
20260506154012 70 238 0.9 2.6 0.00 0.00 0.00 71 1015.6
20260506153513 70 247 0.9 2.6 0.00 0.00 0.00 72 1015.6
20260506153006 70 305 1.7 2.6 0.00 0.00 0.00 72 1015.5
20260506152506 69 245 0.9 2.6 0.00 0.00 0.00 71 1015.2
20260506152008 69 352 0.0 1.7 0.00 0.00 0.00 72 1015.3
20260506151528 69 360 0.0 3.5 0.00 0.00 0.00 73 1015.3
20260506151009 69 283 0.0 3.5 0.00 0.00 0.00 72 1015.3
20260506150507 69 217 0.9 3.5 0.00 0.00 0.00 71 1015.2
20260506150018 69 349 0.0 3.5 0.00 0.00 0.00 70 1015.1
20260506145512 69 111 0.0 3.5 0.00 0.00 0.00 71 1015.1
20260506145009 69 266 0.9 5.2 0.00 0.00 0.00 70 1015.1
20260506144525 69 352 1.7 5.2 0.00 0.00 0.00 70 1015.1
20260506144015 69 232 0.0 2.6 0.00 0.00 0.00 72 1015.0
20260506143514 69 267 0.9 2.6 0.00 0.00 0.00 71 1014.9
20260506143026 69 341 0.9 2.6 0.00 0.00 0.00 72 1014.8
20260506142508 69 225 0.9 5.2 0.00 0.00 0.00 71 1014.6
20260506142006 69 67 0.9 5.2 0.00 0.00 0.00 72 1014.4
20260506141511 68 150 0.9 2.6 0.00 0.00 0.00 72 1014.5
20260506141007 68 279 0.9 2.6 0.00 0.00 0.00 72 1014.5
20260506140508 68 85 0.9 2.6 0.00 0.00 0.00 73 1014.3
20260506140022 68 232 0.0 2.6 0.00 0.00 0.00 73 1014.4
20260506135507 67 220 0.0 4.3 0.00 0.00 0.00 73 1014.6
20260506135010 67 321 0.9 4.3 0.00 0.00 0.00 74 1014.5
20260506134522 67 258 0.0 2.6 0.00 0.00 0.00 74 1014.4
20260506134010 67 308 0.9 4.3 0.00 0.00 0.00 75 1014.3
20260506133513 67 190 0.9 5.2 0.00 0.00 0.00 74 1014.3
20260506133040 66 235 0.9 5.2 0.00 0.00 0.00 74 1014.5
20260506132510 66 228 0.9 2.6 0.00 0.00 0.00 75 1014.5
20260506132015 66 239 0.9 1.7 0.00 0.00 0.00 75 1014.5
20260506131532 65 334 0.9 2.6 0.00 0.00 0.00 75 1014.6
20260506131006 65 243 0.9 2.6 0.00 0.00 0.00 76 1014.6
20260506130515 65 170 0.9 2.6 0.00 0.00 0.00 76 1014.6
20260506130018 65 207 0.0 1.7 0.00 0.00 0.00 76 1014.7
20260506125507 64 257 0.0 2.6 0.00 0.00 0.00 76 1014.7
20260506125009 65 214 0.9 2.6 0.00 0.00 0.00 76 1014.6
20260506124519 65 215 0.9 3.5 0.00 0.00 0.00 76 1014.6
20260506124007 65 233 0.9 3.5 0.00 0.00 0.00 75 1014.4
20260506123510 65 234 0.9 1.7 0.00 0.00 0.00 75 1014.2
20260506123024 65 263 0.9 3.5 0.00 0.00 0.00 75 1014.1
20260506122509 65 210 0.9 4.3 0.00 0.00 0.00 74 1014.1
20260506122006 65 246 0.9 4.3 0.00 0.00 0.00 75 1014.1
20260506121507 65 146 0.0 1.7 0.00 0.00 0.00 75 1014.2
20260506121005 65 193 0.0 1.7 0.00 0.00 0.00 75 1014.3
20260506120507 64 199 0.0 1.7 0.00 0.00 0.00 76 1014.3
20260506120027 64 199 0.0 1.7 0.00 0.00 0.00 75 1014.3
20260506115506 64 173 0.0 1.7 0.00 0.00 0.00 75 1014.4
20260506115006 64 167 0.0 1.7 0.00 0.00 0.00 76 1014.5
20260506114513 64 285 0.0 1.7 0.00 0.00 0.00 75 1014.5
20260506114003 64 346 0.9 2.6 0.00 0.00 0.00 76 1014.7
20260506113503 64 335 0.0 2.6 0.00 0.00 0.00 76 1014.6
20260506113008 64 336 0.0 2.6 0.00 0.00 0.00 76 1014.5
20260506112503 64 88 0.0 2.6 0.00 0.00 0.00 76 1014.3
20260506112003 63 338 0.0 1.7 0.00 0.00 0.00 76 1014.1
20260506111508 63 213 0.9 1.7 0.00 0.00 0.00 76 1014.0
20260506111006 63 262 0.9 1.7 0.00 0.00 0.00 76 1013.9
20260506110509 63 336 0.0 1.7 0.00 0.00 0.00 76 1013.9
20260506110012 63 264 0.0 2.6 0.00 0.00 0.00 76 1013.9
20260506105507 63 255 0.9 2.6 0.00 0.00 0.00 76 1013.8
20260506105007 63 246 0.9 3.5 0.00 0.00 0.00 76 1013.7
20260506104516 63 229 0.9 3.5 0.00 0.00 0.00 76 1013.6
20260506104007 63 269 0.0 2.6 0.00 0.00 0.00 76 1013.7
20260506103508 63 217 0.9 2.6 0.00 0.00 0.00 76 1013.7
20260506103005 63 59 0.0 2.6 0.00 0.00 0.00 76 1013.6
20260506102504 63 227 0.9 2.6 0.00 0.00 0.00 76 1013.5
20260506102004 63 221 0.9 2.6 0.00 0.00 0.00 75 1013.3
20260506101506 63 212 0.9 2.6 0.00 0.00 0.00 75 1013.4
20260506101005 63 178 0.9 2.6 0.00 0.00 0.00 75 1013.3
20260506100503 63 225 0.0 1.7 0.00 0.00 0.00 75 1013.2
20260506100023 63 207 0.9 1.7 0.00 0.00 0.00 75 1013.3
20260506095506 63 217 0.0 3.5 0.00 0.00 0.00 75 1013.3
20260506095006 63 250 0.9 3.5 0.00 0.00 0.00 75 1013.3
20260506094519 63 198 0.0 1.7 0.00 0.00 0.00 75 1013.4
20260506094007 63 215 0.9 2.6 0.00 0.00 0.00 75 1013.4
20260506093507 63 206 0.9 2.6 0.00 0.00 0.00 75 1013.5
20260506093020 63 227 0.9 4.3 0.00 0.00 0.00 76 1013.5
20260506092510 63 262 0.0 4.3 0.00 0.00 0.00 76 1013.5
20260506092003 63 244 0.9 3.5 0.00 0.00 0.00 76 1013.5
20260506091506 63 232 0.9 2.6 0.00 0.00 0.00 76 1013.4
20260506091004 63 225 0.9 2.6 0.00 0.00 0.00 76 1013.3
20260506090502 63 241 0.9 1.7 0.00 0.00 0.00 76 1013.4
20260506090009 63 232 0.0 1.7 0.00 0.00 0.00 75 1013.1
20260506085503 64 212 0.9 1.7 0.00 0.00 0.00 75 1013.4
20260506085006 64 109 0.0 1.7 0.00 0.00 0.00 75 1013.6
20260506084514 64 230 0.0 1.7 0.00 0.00 0.00 75 1013.7
20260506084009 64 238 0.9 1.7 0.00 0.00 0.00 74 1013.7
20260506083512 64 229 0.9 1.7 0.00 0.00 0.00 74 1013.7
20260506083020 64 215 0.0 1.7 0.00 0.00 0.00 74 1013.8
20260506082507 64 231 0.9 1.7 0.00 0.00 0.00 74 1013.8
20260506082013 64 219 0.0 1.7 0.00 0.00 0.00 74 1013.7
20260506081518 64 234 0.0 3.5 0.00 0.00 0.00 74 1013.9
20260506081003 64 223 0.0 3.5 0.00 0.00 0.00 74 1014.0
20260506080504 64 227 0.0 2.6 0.00 0.00 0.00 74 1014.2
20260506073509 64 242 0.9 3.5 0.00 0.00 0.00 73 1013.8
20260506073016 64 248 0.9 3.5 0.00 0.00 0.00 73 1013.9
20260506072509 64 153 1.7 3.5 0.00 0.00 0.00 73 1013.6
20260506072012 65 200 0.9 3.5 0.00 0.00 0.00 73 1013.8
20260506071522 65 204 0.9 3.5 0.00 0.00 0.00 73 1013.7
20260506071010 65 198 0.9 3.5 0.00 0.00 0.00 72 1013.6
20260506070507 65 211 0.9 2.6 0.00 0.00 0.00 72 1013.7
20260506062509 66 217 1.7 3.5 0.00 0.00 0.00 70 1014.2
20260506062008 66 219 0.0 8.7 0.00 0.00 0.00 69 1014.1
20260506061523 66 145 1.7 8.7 0.00 0.00 0.00 69 1014.0
20260506061011 66 220 0.9 6.1 0.00 0.00 0.00 68 1014.1
20260506060511 66 78 0.0 7.0 0.00 0.00 0.00 68 1014.1
20260506051007 66 221 0.9 3.5 0.00 0.00 0.00 62 1014.4
20260506050513 66 178 0.9 3.5 0.00 0.00 0.00 62 1014.5
20260506045010 66 208 0.9 3.5 0.00 0.00 0.00 60 1014.3
20260506044524 67 254 0.0 4.3 0.00 0.00 0.00 60 1014.3
20260506044010 67 159 0.0 4.3 0.00 0.00 0.00 59 1014.2
20260506043508 67 183 0.9 2.6 0.00 0.00 0.00 59 1014.0
20260506043010 67 118 0.9 2.6 0.00 0.00 0.00 59 1014.0
20260506042505 67 198 0.0 1.7 0.00 0.00 0.00 59 1014.1
20260506042010 67 178 0.0 1.7 0.00 0.00 0.00 58 1013.9
20260506041517 67 190 0.0 0.9 0.00 0.00 0.00 58 1013.7
20260506041011 67 184 0.0 0.0 0.00 0.00 0.00 57 1013.8
20260506040506 67 184 0.0 0.0 0.00 0.00 0.00 57 1013.9
20260506040035 67 184 0.0 0.0 0.00 0.00 0.00 56 1013.9
20260506035510 68 184 0.0 0.0 0.00 0.00 0.00 56 1013.9
20260506035010 68 184 0.0 0.0 0.00 0.00 0.00 56 1013.9
20260506034528 68 184 0.0 0.0 0.00 0.00 0.00 56 1013.9
20260506034007 68 184 0.0 0.0 0.00 0.00 0.00 56 1013.9
20260506033511 68 184 0.0 1.7 0.00 0.00 0.00 56 1014.0
20260506033026 68 162 0.0 1.7 0.00 0.00 0.00 56 1013.9
20260506032506 68 179 0.0 0.9 0.00 0.00 0.00 56 1013.9
20260506032009 67 179 0.0 0.9 0.00 0.00 0.00 56 1013.9
20260506031516 67 188 0.0 0.0 0.00 0.00 0.00 56 1014.1
20260506031007 67 188 0.0 0.0 0.00 0.00 0.00 56 1014.1
20260506030510 67 211 0.0 0.0 0.00 0.00 0.00 57 1014.2
20260506030021 67 211 0.0 0.0 0.00 0.00 0.00 57 1014.2
20260506025507 67 211 0.0 1.7 0.00 0.00 0.00 56 1014.3
20260506025010 68 211 0.0 1.7 0.00 0.00 0.00 55 1014.3
20260506024529 68 211 0.0 0.0 0.00 0.00 0.00 54 1014.2
20260506024003 68 211 0.0 0.0 0.00 0.00 0.00 54 1014.2
20260506023504 69 211 0.0 0.0 0.00 0.00 0.00 53 1014.1
20260506023007 69 211 0.0 0.9 0.00 0.00 0.00 53 1013.9
20260506022508 70 211 0.0 0.9 0.00 0.00 0.00 52 1013.8
20260506022008 70 211 0.0 0.0 0.00 0.00 0.00 51 1013.8
20260506021520 70 211 0.0 0.0 0.00 0.00 0.00 50 1013.8
20260506021005 70 211 0.0 1.7 0.00 0.00 0.00 50 1013.8
20260506020507 71 211 0.0 1.7 0.00 0.00 0.00 50 1013.7
20260506020020 71 211 0.0 1.7 0.00 0.00 0.00 50 1013.8
20260506015510 71 205 0.0 1.7 0.00 0.00 0.00 49 1013.8
20260506015014 71 184 0.0 1.7 0.00 0.00 0.00 49 1013.8
20260506014522 71 184 0.0 1.7 0.00 0.00 0.00 49 1013.9
20260506014009 71 184 0.0 1.7 0.00 0.00 0.00 49 1013.9
20260506013510 72 184 0.0 1.7 0.00 0.00 0.00 48 1014.0
20260506013008 72 184 0.0 0.9 0.00 0.00 0.00 48 1013.9
20260506012504 72 195 0.0 0.0 0.00 0.00 0.00 47 1013.9
20260506012008 72 178 0.0 0.0 0.00 0.00 0.00 47 1013.9
20260506011512 72 164 0.0 0.0 0.00 0.00 0.00 47 1013.9
20260506011010 72 250 0.0 0.0 0.00 0.00 0.00 47 1013.9
20260506010511 72 165 0.0 0.0 0.00 0.00 0.00 47 1013.8
20260506010035 72 218 0.0 0.0 0.00 0.00 0.00 47 1013.8
20260506005508 73 218 0.0 0.0 0.00 0.00 0.00 46 1013.8
20260506005011 73 240 0.0 0.0 0.00 0.00 0.00 46 1013.8
20260506004520 73 240 0.0 0.0 0.00 0.00 0.00 45 1013.8
20260506004009 73 240 0.0 0.0 0.00 0.00 0.00 45 1013.8
20260506003512 73 240 0.0 1.7 0.00 0.00 0.00 45 1013.7
20260506003024 73 240 0.0 1.7 0.00 0.00 0.00 45 1013.7
20260506002507 73 240 0.0 1.7 0.00 0.00 0.00 44 1013.7
20260506002013 73 240 0.0 1.7 0.00 0.00 0.00 44 1013.7
20260506001510 74 240 0.0 1.7 0.00 0.00 0.00 44 1013.7
20260506001005 74 240 0.0 1.7 0.00 0.00 0.00 44 1013.7
20260506000508 74 234 0.0 1.7 0.00 0.00 0.00 43 1013.8
20260506000013 74 234 0.0 1.7 0.00 0.00 0.00 43 1013.8
20260505235508 74 331 0.0 1.7 0.00 0.00 0.00 43 1013.9
20260505235008 75 214 0.0 1.7 0.00 0.00 0.00 41 1013.8
20260505234532 75 195 0.0 1.7 0.00 0.00 0.00 42 1013.6
20260505234007 75 218 0.0 1.7 0.00 0.00 0.00 42 1013.6
20260505233508 75 146 0.0 1.7 0.00 0.00 0.00 41 1013.6
20260505233033 75 269 0.0 1.7 0.00 0.00 0.00 41 1013.5
20260505232511 76 360 0.9 1.7 0.00 0.00 0.00 40 1013.6
20260505232012 76 26 0.0 1.7 0.00 0.00 0.00 40 1013.5
20260505231530 76 80 0.0 2.6 0.00 0.00 0.00 40 1013.5
20260505231010 76 177 0.9 3.5 0.00 0.00 0.00 40 1013.5
20260505230504 76 248 0.9 4.3 0.00 0.00 0.00 39 1013.6
20260505230013 76 211 0.9 9.6 0.00 0.00 0.00 39 1013.6
20260505225508 76 225 1.7 7.0 0.00 0.00 0.00 39 1013.5
20260505225011 77 42 0.9 4.3 0.00 0.00 0.00 38 1013.5
20260505224516 77 299 0.9 6.1 0.00 0.00 0.00 37 1013.5
20260505224011 77 217 1.7 7.0 0.00 0.00 0.00 37 1013.6
20260505223519 78 266 1.7 7.0 0.00 0.00 0.00 37 1013.7
20260505223022 78 171 0.9 6.1 0.00 0.00 0.00 37 1013.7
20260505222511 78 246 0.9 5.2 0.00 0.00 0.00 37 1013.7
20260505222017 78 252 1.7 6.1 0.00 0.00 0.00 37 1013.7
20260505221526 78 230 3.5 9.6 0.00 0.00 0.00 37 1013.7
20260505221013 78 70 1.7 9.6 0.00 0.00 0.00 37 1013.7
20260505220511 78 292 1.7 8.7 0.00 0.00 0.00 36 1013.7
20260505220029 79 200 1.7 6.1 0.00 0.00 0.00 36 1013.7
20260505215504 79 308 1.7 7.8 0.00 0.00 0.00 35 1013.7
20260505215008 79 134 2.6 7.8 0.00 0.00 0.00 35 1013.7
20260505214520 79 208 1.7 5.2 0.00 0.00 0.00 36 1013.6
20260505214008 79 225 1.7 6.1 0.00 0.00 0.00 36 1013.6
20260505213508 79 236 0.9 6.1 0.00 0.00 0.00 36 1013.7
20260505213022 79 295 1.7 7.0 0.00 0.00 0.00 35 1013.7
20260505212515 79 147 3.5 7.0 0.00 0.00 0.00 35 1013.7
20260505212014 79 288 0.9 5.2 0.00 0.00 0.00 35 1013.8
20260505211526 79 215 1.7 5.2 0.00 0.00 0.00 35 1013.9
20260505211008 79 203 1.7 6.1 0.00 0.00 0.00 35 1013.8
20260505210512 79 152 1.7 7.0 0.00 0.00 0.00 36 1013.9
20260505210028 79 219 0.9 7.0 0.00 0.00 0.00 36 1014.1
20260505205508 78 133 1.7 4.3 0.00 0.00 0.00 37 1014.1
20260505205015 78 148 0.9 4.3 0.00 0.00 0.00 35 1014.1
20260505204513 79 262 0.9 5.2 0.00 0.00 0.00 35 1014.1
20260505204012 79 211 1.7 4.3 0.00 0.00 0.00 37 1014.3
20260505203507 78 34 0.9 6.1 0.00 0.00 0.00 38 1014.3
20260505203036 78 241 0.9 6.1 0.00 0.00 0.00 37 1014.4
20260505202509 79 83 0.9 6.1 0.00 0.00 0.00 36 1014.2
20260505202013 79 273 1.7 6.1 0.00 0.00 0.00 36 1014.3
20260505201529 79 320 1.7 6.1 0.00 0.00 0.00 37 1014.3
20260505201009 79 226 0.9 7.8 0.00 0.00 0.00 37 1014.4
20260505200514 79 209 1.7 7.8 0.00 0.00 0.00 35 1014.5
20260505200026 79 329 1.7 4.3 0.00 0.00 0.00 36 1014.7